Estación de Colegual INIA
Ultimos registro cada 15 minutos 33
| N° | Estación | Fecha / Hora | Temperatura | Humedad | Lluvia | Velocidad | Dirección | Radiación | Presion |
| 33 | Colegual INIA | 10-05-2026 08:00 | 1,9 | 100 | 0 | 0 | 0 | 4 | 1003 |
| 32 | Colegual INIA | 10-05-2026 07:45 | 1,8 | 100 | 0 | 0 | 0 | 2 | 1003 |
| 31 | Colegual INIA | 10-05-2026 07:30 | 2,4 | 100 | 0 | 0 | 0 | 0 | 1003 |
| 30 | Colegual INIA | 10-05-2026 07:15 | 3,1 | 100 | 0,1 | 0 | 63 | 0 | 1003 |
| 29 | Colegual INIA | 10-05-2026 07:00 | 2,9 | 100 | 0 | 0 | 0 | 0 | 1003 |
| 28 | Colegual INIA | 10-05-2026 06:45 | 2,5 | 100 | 0 | 0 | 0 | 0 | 1004 |
| 27 | Colegual INIA | 10-05-2026 06:30 | 3,1 | 100 | 0 | 0 | 54 | 0 | 1003 |
| 26 | Colegual INIA | 10-05-2026 06:15 | 3 | 100 | 0 | 0 | 30 | 0 | 1004 |
| 25 | Colegual INIA | 10-05-2026 06:00 | 3,4 | 100 | 0 | 0 | 32 | 0 | 1004 |
| 24 | Colegual INIA | 10-05-2026 05:45 | 2,5 | 100 | 0 | 0 | 47 | 0 | 1004 |
| 23 | Colegual INIA | 10-05-2026 05:30 | 1,9 | 100 | 0 | 0 | 46 | 0 | 1004 |
| 22 | Colegual INIA | 10-05-2026 05:15 | 1,6 | 100 | 0 | 0 | 39 | 0 | 1003 |
| 21 | Colegual INIA | 10-05-2026 05:00 | 1,6 | 100 | 0 | 0,1 | 57 | 0 | 1003 |
| 20 | Colegual INIA | 10-05-2026 04:45 | 1,6 | 100 | 0 | 0 | 63 | 0 | 1003 |
| 19 | Colegual INIA | 10-05-2026 04:30 | 1,8 | 100 | 0 | 0 | 0 | 0 | 1003 |
| 18 | Colegual INIA | 10-05-2026 04:15 | 2,5 | 99,2 | 0 | 0 | 0 | 0 | 1003 |
| 17 | Colegual INIA | 10-05-2026 04:00 | 2,4 | 100 | 0 | 0 | 0 | 0 | 1004 |
| 16 | Colegual INIA | 10-05-2026 03:45 | 2,6 | 100 | 0 | 0 | 54 | 0 | 1004 |
| 15 | Colegual INIA | 10-05-2026 03:30 | 2,7 | 99,7 | 0 | 0 | 42 | 0 | 1004 |
| 14 | Colegual INIA | 10-05-2026 03:15 | 2,6 | 100 | 0 | 0 | 66 | 0 | 1004 |
| 13 | Colegual INIA | 10-05-2026 03:00 | 2,9 | 100 | 0 | 0 | 45 | 0 | 1004 |
| 12 | Colegual INIA | 10-05-2026 02:45 | 3,3 | 99,9 | 0 | 0 | 0 | 0 | 1004 |
| 11 | Colegual INIA | 10-05-2026 02:30 | 3,2 | 99,7 | 0 | 0 | 0 | 0 | 1004 |
| 10 | Colegual INIA | 10-05-2026 02:15 | 2,9 | 100 | 0 | 0 | 351 | 0 | 1004 |
| 9 | Colegual INIA | 10-05-2026 02:00 | 3,1 | 99,9 | 0 | 0 | 19 | 0 | 1004 |
| 8 | Colegual INIA | 10-05-2026 01:45 | 2,9 | 99,6 | 0 | 0,1 | 39 | 0 | 1004 |
| 7 | Colegual INIA | 10-05-2026 01:30 | 2,4 | 100 | 0 | 0 | 14 | 0 | 1004 |
| 6 | Colegual INIA | 10-05-2026 01:15 | 2,8 | 99,6 | 0 | 0,2 | 44 | 0 | 1004 |
| 5 | Colegual INIA | 10-05-2026 01:00 | 2,8 | 99,7 | 0 | 0 | 7 | 0 | 1004 |
| 4 | Colegual INIA | 10-05-2026 00:45 | 3,1 | 99,3 | 0 | 0,1 | 68 | 0 | 1004 |
| 3 | Colegual INIA | 10-05-2026 00:30 | 3,4 | 98,7 | 0 | 0 | 120 | 0 | 1005 |
| 2 | Colegual INIA | 10-05-2026 00:15 | 2,8 | 98,9 | 0 | 0 | 0 | 0 | 1005 |
| 1 | Colegual INIA | 10-05-2026 00:00 | 2,8 | 98,2 | 0 | 0 | 0 | 0 | 1005 |